Location: *
(0.1100°N, 5.5000°E)
Time: 00:06:21
(UTC+00:00)

NOAA 6 - Visible Passes

Search period start: 29 May 2023 00:00
Search period end: 08 June 2023 00:00
Orbit: 771 x 785 km, 98.7° (Epoch: 28 May)

Date Brightness Start Highest point End Pass type
(mag) Time Alt. Az. Time Alt. Az. Time Alt. Az.
29 May 6.4 19:01:09 10° SSW 19:04:56 21° WSW 19:08:43 10° NW visible
30 May 4.8 18:27:04 10° S 18:32:02 54° WSW 18:37:01 10° NNW visible
31 May 4.1 17:54:07 10° SSE 17:59:09 59° ENE 18:04:10 10° N visible
01 Jun 6.4 19:01:26 10° SSW 19:05:13 21° WSW 19:09:00 10° NW visible
02 Jun 4.8 18:27:22 10° S 18:32:20 53° WSW 18:37:18 10° NNW visible
03 Jun 4.1 17:54:25 10° SSE 17:59:27 59° ENE 18:04:28 10° N visible
04 Jun 6.4 19:01:43 10° SSW 19:05:31 21° WSW 19:09:17 10° NW visible
05 Jun 4.8 18:27:38 10° S 18:32:37 53° WSW 18:37:36 10° NNW visible
06 Jun 4.1 17:54:41 10° SSE 17:59:43 59° ENE 18:04:45 10° N visible
07 Jun 6.4 19:02:00 10° SSW 19:05:47 21° WSW 19:09:34 10° NW visible
